Regional Weather Roundup
Issued by NWS Pendleton, OR

Home | Current Version | Previous Version | Text Only | Print | Product List | Glossary On
Versions: 1 2 3 4 5 6 7 8 9 10 11 12 13 14 15 16 17 18 19 20 21 22 23 24 25 26 27 28 29 30 31 32 33 34 35 36 37 38 39 40 41 42 43 44 45 46 47 48 49 50
000
ASUS46 KPDT 260325
RWRPDT
PENDLETON REGIONAL WEATHER ROUNDUP
NATIONAL WEATHER SERVICE PENDLETON OREGON
800 PM PDT SAT OCT 25 2014

NOTE: FAIR INDICATES FEW OR NO CLOUDS BELOW 12,000 FEET WITH NO
SIGNIFICANT WEATHER AND/OR OBSTRUCTIONS TO VISIBILITY.

# INDICATES UNOFFICIAL STATION AND DATA

WAZ520-260410-
EAST SLOPES OF WASHINGTON CASCADES

CITY            SKY/WX      TMP DP  RH  WIND    PRES   REMARKS
#BULLFROG 2SW   N/A         63  43  48  CALM    29.53F
#BUMPING DAM    N/A         45  N/A N/A S6      N/A
#CLE ELUM HS    N/A         49  46  89  E1      29.44R
#CLE ELUM 2NW   N/A         48  47  96  NE3     N/A
#CLE ELUM LAKE  N/A         46  45  96  CALM    29.43R
#CLIFFDEL 2NW   N/A         46  46  100 CALM    N/A
#GLENWOOD       N/A         50  48  93  S12     29.57R
#MANASTASH CYN  N/A         47  43  86  CALM    29.47R
#NELSON         N/A         48  47  96  CALM    29.44R
#NELSON 3SW     N/A         45  44  96  CALM    29.64R
#NILE           N/A         48  46  93  W1      28.71R
#RONALD 2NW     N/A         48  46  93  NW1     29.38R
#SNOWDEN        N/A         47  43  86  N3      N/A
#TEANAWAY 4NE   N/A         51  48  89  CALM    N/A
#TROUT LAKE 1NE N/A         50  46  86  W15G25  29.61R
$$

WAZ521-260410-
SIMCOE HIGHLANDS

CITY            SKY/WX      TMP DP  RH  WIND    PRES   REMARKS
#BICKLETON HS   N/A         49  43  80  SW10    29.62S
#CENTERVILLE 4W N/A         52  47  83  W13     29.41R
#CENTERVILLE 1SWN/A         51  46  83  W13     29.60R
#GOLDENDALE     N/A         54  48  80  SW7     N/A
#GOLDENDALE 1NE N/A         52  47  83  SW5     N/A
#GOLDENDALE 1S  N/A         52  48  86  W14     29.61R
#GOLDENDALE 5WNWN/A         51  46  83  SW20    29.63R
#GOODNOE HILLS  N/A         56  47  72  W35G45  29.57R
#LYLE 6NE       N/A         50  47  89  W21G33  29.58R
$$

WAZ026-260410-
KITTITAS VALLEY

CITY            SKY/WX      TMP DP  RH  WIND    PRES   REMARKS
ELLENSBURG AP   CLOUDY      55  46  72  E6      29.44S
#ELLENSBURG CWU N/A         54  48  80  SE8     29.39F
#ELLENSBURG 3NE N/A         52  47  83  E1      29.48S
#ELLENSBURG     N/A         56  51  83  S8      N/A
#KITTITAS 3S    N/A         54  48  80  SE5     29.41F
#THORP 6N       N/A         49  47  93  SE9     29.45S
$$

WAZ027-260410-
YAKIMA VALLEY

CITY            SKY/WX      TMP DP  RH  WIND    PRES   REMARKS
SUNNYSIDE AP    CLOUDY      55  48  77  S9      29.54R
YAKIMA AIRPORT  MOCLDY      56  48  74  S18G28  29.46S
YAKIMA-VAGABOND PTCLDY      56  47  72  S21G38  29.47S
#COWICHE 1N     N/A         49  46  89  N1      29.64R
#DONALD 2NE     N/A         57  44  62  NE2     29.83R
#GRANDVIEW      N/A         58  47  67  S2      29.58R
#MABTON         N/A         60  49  67  S6      29.55R
#MOXEE 2E       N/A         57  38  49  S25     29.44R
#NACHES 2SW     N/A         49  48  96  CALM    29.46S
#OUTLOOK DOT    N/A         N/A N/A N/A E8      N/A
#SELAH 8E       N/A         54  46  74  S23G36  N/A
#TERRACE HTS    N/A         55  49  80  S6      29.45R
#TOPPENISH      N/A         56  49  77  S5      29.42R
#WAPATO 4NE     N/A         57  44  62  NE2     29.83R
#WEST VALLEY    N/A         53  48  83  S7      29.43F
#W YAKIMA       N/A         54  48  80  SW6     29.45S
#WHITE SWAN 5E  N/A         58  48  69  S24G41  29.45F
#WILEY CITY 3W  N/A         52  38  59  S13     29.96S
$$

WAZ028-260410-
LOWER COLUMBIA BASIN...WASHINGTON

CITY            SKY/WX      TMP DP  RH  WIND    PRES   REMARKS
PASCO           MOCLDY      54  52  93  SE13    29.53R
PROSSER AWOS    N/A         61  46  58  S18     29.59R
RICHLAND AWOS   PTCLDY      61  48  62  SW13    29.52R
#BASIN CITY 5SW N/A         55  51  86  SE2     29.52R
#BENTON CITY    N/A         59  50  72  S12     29.44R
#CONNELL 5N     N/A         52  49  89  SW7     29.51R
#CONNELL 5NW    N/A         52  49  89  SW8     29.48R
#ELTOPIA 6NW    N/A         51  50  96  S6      28.52R
#KENNEWICK      N/A         63  43  48  CALM    29.53F
#KENNEWICK 3S   N/A         58  49  72  S8      29.53S
#PATERSON       N/A         63  48  58  W17G30  29.54R
#PROSSER        N/A         57  48  72  S13     29.55R
#SAGEMOOR 2W    N/A         52  50  93  E2      29.39R
#TOUCHET 2S     N/A         64  49  58  S18G33  29.52R
#WEST PASCO     N/A         56  51  83  S7      29.49R
$$

WAZ029-260410-
FOOTHILLS OF THE BLUES...WASHINGTON

CITY            SKY/WX      TMP DP  RH  WIND    PRES   REMARKS
WALLA WALLA AP  MOCLDY      63  45  52  S21G26  29.58R
#LOWDEN 2SE     N/A         66  49  54  S14     29.52R
#PLEASANT VIEW 1N/A         53  48  83  S15     29.58R
#PRESCOTT       N/A         59  51  75  SW1     29.56R
#SUDBURY        N/A         63  N/A N/A N3      N/A
#WHITMAN COLLEGEN/A         64  47  54  SE6     29.64R
#WAITSBURG 8N   N/A         58  35  42  S13     29.53R
#WALLA WALLA 5E N/A         63  44  50  CALM    N/A
#WALLA WALLA U  N/A         66  48  52  CALM    29.57R
#WHITMAN MISSIONN/A         64  50  60  S3      29.58R
$$

WAZ030-260410-
BLUE MOUNTAINS...WASHINGTON

CITY            SKY/WX      TMP DP  RH  WIND    PRES   REMARKS
$$

ORZ009-041-WAZ024-260410-
COLUMBIA RIVER GORGE

CITY            SKY/WX      TMP DP  RH  WIND    PRES   REMARKS
HOOD RIVER AP   RAIN        55  48  77  W3      29.63R
THE DALLES AP   CLOUDY      60  42  51  W30G44  29.62R
#ARLINGTON AIRPON/A         59  47  64  W25     29.98F
#ARLINGTON HS   N/A         63  47  56  NW12    29.50R
#CELILO DOT     N/A         60  42  51  SW12    N/A
#LYLE           N/A         57  51  80  N8      29.64R
#MARYHILL 2W    N/A         56  46  69  S15G29  N/A
#MOSIER 1S      N/A         53  40  61  CALM    N/A
#MURDOCK        N/A         59  52  78  W3      29.68R
#RUFUS DOT      N/A         N/A N/A N/A SW15G28 N/A

$$

ORZ510-260410-
NORTH CENTRAL OREGON

CITY            SKY/WX      TMP DP  RH  WIND    PRES   REMARKS
#CHENOWITH 1W   N/A         51  44  77  W32     N/A
#COW CYN RST AREN/A         49  39  68  SW16G26 N/A    WCI 43
#DUFUR 9E       N/A         52  43  71  SW20G40 29.69R
#GRASS VALLEY   N/A         50  41  71  S10G26  N/A
#GRASS VALLEY 1SN/A         52  41  66  SW23G35 29.69R
#KENT DOT       N/A         52  33  48  SW35G41 N/A
#MAUPIN SCHOOL  N/A         59  43  55  W12     28.59R
#MORO SCHOOL    N/A         56  47  72  SW12G25 29.66R
#SHANIKO 5WSW   N/A         45  35  68  SW28    N/A    WCI 36
#SHANIKO 4NW    N/A         47  37  68  SW17G28 29.69R WCI 40
#TYGH VALLEY 2NEN/A         57  44  62  SW22    29.65R
#WAPANITIA AIRPON/A         52  42  69  W14G28  29.70R
#WASCO DOT      N/A         54  46  74  W14     N/A
#WASCO 5NE      N/A         55  47  74  SW9     29.60R
$$

ORZ511-260410-
CENTRAL OREGON

CITY            SKY/WX      TMP DP  RH  WIND    PRES   REMARKS
BEND AIRPORT    PTCLDY      46  37  71  S18G24  29.81R WCI 39
MADRAS AIRPORT  MOCLDY      54  37  52  SW10G30 29.76R
PRINEVILLE AP   CLOUDY      50  37  61  SW12    29.82R
REDMOND AIRPORT CLOUDY      51  35  54  W15     29.79R
#BEND 6E        N/A         47  36  65  CALM    29.75R
#BEND 1SW       N/A         43  39  86  SW3     N/A
#BEND-KIM LN    N/A         46  40  79  SW3     29.77R
#CULVER         N/A         51  39  63  SW15G31 29.72R
#LAKE BILLY CHINN/A         50  22  33  W10     29.84R
#POWELL BUTTE 3EN/A         53  38  57  S12     N/A
#POWELL BUTTE   N/A         49  39  68  SW7     29.47R
#PRINEVILLE 3N  N/A         52  38  59  SW3G30  29.74R
#WARM SPRINGS   N/A         58  42  55  E5      29.72R


ORZ509-260410-
EAST SLOPES OF OREGON CASCADES

CITY            SKY/WX      TMP DP  RH  WIND    PRES   REMARKS
#LA PINE DOT    N/A         41  36  82  SW8     N/A
#LA PINE 4NW    N/A         41  37  86  SW7     29.83R
#LAVA BUTTE DOT N/A         40  37  89  SE5     N/A
#SISTERS AIRPOR N/A         47  43  86  N15G26  29.91S WCI 41
#SISTERS ODOT   N/A         46  N/A N/A SE9     N/A
#SISTERS 1NW    N/A         48  38  68  N5      N/A
#SISTERS 3N     N/A         46  36  68  W3      29.77R
#SUNRIVER       N/A         42  39  89  SW3     29.66R
#SUNRIVER AP    N/A         42  38  86  W10G26  29.71R
#SUTTLE LK DOT  N/A         37  37  100 S35G54  N/A    WCI 24
#TUMALO 3W      N/A         48  36  63  W15     29.63R WCI 42
#WANOGA BUTTE D N/A         34  33  96  W15G37  N/A    WCI 24

$$

ORZ044-260410-
LOWER COLUMBIA BASIN...OREGON

CITY            SKY/WX      TMP DP  RH  WIND    PRES   REMARKS
HERMISTON       MOCLDY      62  44  52  SW16G24 29.57R
#BOARDMAN 3W    N/A         63  44  50  SE6     29.26R
#BOARDMAN 8SW   N/A         63  48  58  S25     29.57R
#ECHO 8SW       N/A         64  43  46  SW14G26 29.54R
#IONE SCHOOL    N/A         62  44  52  S12     29.62R
#IRRIGON 4NW    N/A         60  50  69  S6      N/A
#UMATILLA SCHOOLN/A         59  49  69  SW6     29.59R
#UMATILLA       N/A         64  44  48  S10G30  29.54R
$$

ORZ507-260410-
NORTHERN FOOTHILLS OF THE BLUES

CITY            SKY/WX      TMP DP  RH  WIND    PRES   REMARKS
PENDLETON AIRPT CLOUDY      60  45  58  S16G24  29.61R
#ADAMS 3WNW     N/A         57  46  67  S9      29.58R
#ATHENA         N/A         61  44  53  SW7     29.60R
#CAYUSE         N/A         64  44  48  S26G41  29.58R
#HELIX SCHOOL   N/A         57  46  67  S13     29.58R
#HELIX 3N       N/A         57  47  69  N28G37  29.59R
#HOLDMAN 5SE    N/A         61  47  60  S5      29.62R
#HOLDMAN 6E     N/A         58  47  67  N17G24  29.41R
#M-F FERNDALE   N/A         64  45  50  CALM    29.58R
#M-F GROVE ELEM N/A         64  43  46  S7      29.56R
#M-FREEWATER 5SEN/A         63  45  52  SE7     29.61R
#PENDLETON DNTN N/A         62  40  44  SW3     28.40R
#PDT AQUATIC CTRN/A         63  43  48  S6      29.61R
#PDT SUNRIDGE   N/A         61  46  58  S10     29.60R
#PENDLETON 7NW  N/A         61  47  60  S13     31.13S
#PILOT ROCK     N/A         60  41  49  SE17G26 29.65R
#TUTUILLA       N/A         60  45  58  S17G32  29.60R
#UMAPINE 2E     N/A         64  47  54  S7      29.54R
#WESTON SCHOOL  N/A         60  41  49  SW14G30 29.57S

$$

ORZ508-260410-
SOUTHERN FOOTHILLS OF THE BLUES

CITY            SKY/WX      TMP DP  RH  WIND    PRES   REMARKS
LEXINGTON       CLOUDY      61  39  44  S24G38  29.67R
#AJAX           N/A         56  35  45  S44G73  29.55F
#CONDON SCHOOL  N/A         54  40  59  CALM    29.67R
#CONDON 5W      N/A         52  38  59  SW30G41 29.63R
#HEPPNER EOC    N/A         60  39  46  SW15G30 29.61R
#HEPPNER 4NE    N/A         57  39  51  W16G26  29.65R
#LEXINGTON 2SE  N/A         63  41  44  SW18G30 29.65R
#MIKKALO        N/A         58  40  51  SW20G31 29.63R
#OLEX 4N        N/A         60  44  55  SW24G38 29.62R
#RUGGS 5NE      N/A         56  36  47  SW13G24 29.81R
#RUGGS 2SW      N/A         56  39  53  SW21G33 29.66R

$$

ORZ502-503-260410-
BLUE MOUNTAINS

CITY            SKY/WX      TMP DP  RH  WIND    PRES   REMARKS
MEACHAM         MOCLDY      51  41  68  VRB5    29.71R
#BATTLE MTN DOT N/A         46  45  96  S8      N/A
#HARDMAN 10S    N/A         46  38  73  S8      29.80R
#HEPPNER 15SE   N/A         48  42  80  NE3     29.62R
#LADD CYN SMT   N/A         48  36  63  SW12    N/A    WCI 43
#LADD CREEK ODOTN/A         48  44  86  SW8     N/A
#N POWDER DOT   N/A         54  39  57  W13     N/A
#PIKES PEAK     N/A         56  39  53  S30G48  27.99S
#TROY SCHOOL    N/A         67  43  42  SW7     29.46R
#UKIAH          N/A         51  42  71  SW8     29.71R
#WESTON 4E      N/A         54  42  64  E14G30  29.51R
$$

ORZ505-260410-
JOHN DAY BASIN

CITY            SKY/WX      TMP DP  RH  WIND    PRES   REMARKS
JOHN DAY        PTCLDY      51  39  63  S18     29.82R
#JOHN DAY KJDY  N/A         54  44  69  S5      29.91R
#MT. VERNON 5SE N/A         46  40  79  NE3     29.77R
#WINLOCK        N/A         49  41  74  NE17    29.83R WCI 43
$$

ORZ506-260410-
OCHOCO AND JOHN DAY HIGHLANDS

CITY            SKY/WX      TMP DP  RH  WIND    PRES   REMARKS
#BUCK CREEK DOT N/A         46  43  89  SW12    N/A    WCI 40
#HORSE RIDGE DO N/A         45  36  70  SW20G28 N/A    WCI 37
#KEYES SMT DOT  N/A         48  36  63  SW9     N/A
#PAULINA SCHOOL N/A         47  39  74  SW8G25  29.80R
#PINE MTN OBS   N/A         36  34  92  W2      N/A
#PRAIRIE CITY   N/A         47  38  71  CALM    29.84R
#SENECA         N/A         44  N/A N/A SE5     N/A
#SENECA 9NW     N/A         41  39  93  CALM    29.78R
$$

ORZ049-260410-
GRANDE RONDE VALLEY

CITY            SKY/WX      TMP DP  RH  WIND    PRES   REMARKS
LA GRANDE       CLOUDY      54  39  57  SW20G33 29.69R
#COVE           N/A         53  45  74  SW13    29.69R
#COVE SCHOOL    N/A         53  44  71  W8      29.75R
#COVE 6NW       N/A         51  43  74  S6      29.75R
#ELGIN 3N       N/A         52  43  71  S9      29.45R
#ELGIN 1E       N/A         53  43  69  S1      N/A
#IMBLER SCHOOL  N/A         63  35  35  SW3     29.84S
#LADD CYN DOT   N/A         52  40  63  S21G37  N/A
#UNION 1S       N/A         56  42  59  W13G25  29.61R
$$

ORZ050-260410-
WALLOWA COUNTY

CITY            SKY/WX      TMP DP  RH  WIND    PRES   REMARKS
#ENTERPRISE AP  N/A         60  27  28  S21G39  29.60F
#ENTERPRISE HS  N/A         61  35  38  S15G30  29.68R
#IMNAHA 10S     N/A         64  37  37  SW12G33 29.67S
#JOSEPH 3N      N/A         58  29  33  S30G58  29.68R
#JOSEPH 3W      N/A         55  30  38  CALM    29.57R
#LOSTINE        N/A         61  32  33  SW15G35 29.39S
#MT HOWARD 8000 N/A         38  27  64  S23G51  29.74F WCI 27
#PROMISE 1S     N/A         53  42  66  E14     29.74R
#SHEEP RDG 7000 N/A         44  28  53  CALM    29.48S
#WALLOWA SCHOOL N/A         63  32  31  W2      30.52R



$$



USA.gov is the U.S. government's official web portal to all federal, state and local government web resources and services.